FW8604 Weather Reports


Display with metric or nautical units.
time (UTC)temp
F
wind
direction
speed
MPH
gust
MPH
rain 1hr
in
rain 24hr
in
rain mn
in
humidity
%
barometer
mb
20260505202828 84 359 2.0 4.0 0.00 0.00 0.00 76 1010.7
20260505201928 84 357 2.0 2.0 0.00 0.00 0.00 76 1010.7
20260505201029 84 36 1.0 2.0 0.00 0.00 0.00 76 1010.9
20260505200128 82 66 2.0 4.0 0.00 0.00 0.00 79 1010.9
20260505195229 82 36 2.0 4.0 0.00 0.00 0.00 80 1010.9
20260505194328 82 22 1.0 2.0 0.00 0.00 0.00 80 1011.0
20260505193428 82 26 0.0 2.0 0.00 0.00 0.00 79 1011.1
20260505192529 82 2 1.0 4.0 0.00 0.00 0.00 82 1011.2
20260505191629 82 1 1.0 2.0 0.00 0.00 0.00 80 1011.2
20260505190730 82 51 0.0 4.0 0.00 0.00 0.00 80 1011.1
20260505184028 80 41 1.0 4.0 0.00 0.00 0.00 83 1011.0
20260505183128 81 52 1.0 4.0 0.00 0.00 0.00 82 1011.1
20260505182229 81 40 2.0 4.0 0.00 0.00 0.00 82 1011.1
20260505181330 81 72 2.0 4.0 0.00 0.00 0.00 81 1010.8
20260505180428 80 90 2.0 4.0 0.00 0.00 0.00 82 1010.8
20260505175528 80 63 2.0 7.0 0.00 0.00 0.00 82 1010.9
20260505174630 82 65 4.0 7.0 0.00 0.00 0.00 80 1010.9
20260505173730 82 17 2.0 7.0 0.00 0.00 0.00 79 1010.9
20260505172830 82 64 2.0 6.0 0.00 0.00 0.00 79 1011.0
20260505171028 82 83 2.0 8.0 0.00 0.00 0.00 80 1011.4
20260505170128 80 53 2.0 11.0 0.00 0.00 0.00 82 1011.4
20260505164328 79 51 4.0 8.0 0.00 0.00 0.00 84 1011.7
20260505163428 78 34 4.0 8.0 0.00 0.00 0.00 85 1011.9
20260505162530 78 66 2.0 7.0 0.00 0.00 0.00 86 1012.0
20260505160728 77 72 1.0 7.0 0.00 0.00 0.00 87 1012.2
20260505153129 75 84 2.0 6.0 0.00 0.00 0.00 92 1012.9
20260505152228 74 53 1.0 6.0 0.00 0.00 0.00 92 1013.0
20260505151328 74 33 2.0 6.0 0.00 0.00 0.00 93 1013.2
20260505150428 73 50 3.0 8.0 0.00 0.00 0.00 94 1013.2
20260505140128 72 47 4.0 7.0 0.00 0.00 0.00 93 1013.4
20260505124928 70 60 1.0 7.0 0.00 0.00 0.00 95 1013.5
20260505124028 70 59 4.0 7.0 0.00 0.00 0.00 96 1013.5
20260505123128 69 57 2.0 6.0 0.00 0.00 0.00 96 1012.9
20260505122228 69 64 2.0 9.0 0.00 0.00 0.00 96 1013.1
20260505121328 69 80 4.0 8.0 0.00 0.00 0.00 96 1012.8
20260505115528 67 103 1.0 7.0 0.00 0.00 0.00 98 1012.7
20260505113728 67 62 2.0 4.0 0.00 0.00 0.00 99 1012.7
20260505112828 66 83 2.0 7.0 0.00 0.00 0.00 99 1012.9
20260505111930 66 86 3.0 6.0 0.00 0.00 0.00 99 1012.8
20260505111028 66 89 1.0 4.0 0.00 0.00 0.00 99 1012.6
20260505101628 65 76 2.0 6.0 0.00 0.00 0.00 99 1012.1
20260505094928 64 94 1.0 4.0 0.00 0.00 0.00 99 1012.0
20260505094029 64 99 1.0 2.0 0.00 0.00 0.00 99 1012.0
20260505093128 65 94 1.0 2.0 0.00 0.00 0.00 99 1012.0
20260505092229 65 93 0.0 4.0 0.00 0.00 0.00 99 1011.8
20260505091328 65 98 2.0 4.0 0.00 0.00 0.00 99 1011.7
20260505084628 65 83 2.0 4.0 0.00 0.00 0.00 99 1011.9
20260505083729 65 78 2.0 4.0 0.00 0.00 0.00 99 1011.7
20260505082829 65 102 2.0 4.0 0.00 0.00 0.00 99 1011.6
20260505081928 65 96 0.0 4.0 0.00 0.00 0.00 99 1011.7
20260505081028 65 91 2.0 4.0 0.00 0.00 0.00 99 1011.8
20260505080128 65 84 1.0 4.0 0.00 0.00 0.00 99 1012.0
20260505074328 65 90 2.0 4.0 0.00 0.00 0.00 99 1012.1
20260505073428 65 100 1.0 4.0 0.00 0.00 0.00 99 1012.0
20260505072527 65 92 1.0 4.0 0.00 0.00 0.00 99 1012.0
20260505071628 65 126 2.0 4.0 0.00 0.00 0.00 99 1011.8
20260505070728 65 123 2.0 4.0 0.00 0.00 0.00 99 1012.0
20260505065828 65 100 2.0 4.0 0.00 0.00 0.00 99 1012.3
20260505064928 65 90 0.0 4.0 0.00 0.00 0.00 99 1012.3
20260505064028 65 93 1.0 6.0 0.00 0.00 0.00 99 1012.4
20260505063128 65 80 0.0 4.0 0.00 0.00 0.00 99 1012.5
20260505062230 65 92 1.0 2.0 0.00 0.00 0.00 99 1012.4
20260505061328 65 114 1.0 4.0 0.00 0.00 0.00 99 1012.3
20260505060428 65 93 2.0 2.0 0.00 0.00 0.00 99 1012.1
20260505055528 65 89 1.0 2.0 0.00 0.00 0.00 99 1012.3
20260505054628 65 92 1.0 2.0 0.00 0.00 0.00 99 1012.4
20260505053728 65 90 0.0 2.0 0.00 0.00 0.00 99 1012.4
20260505052828 65 66 1.0 2.0 0.00 0.00 0.00 99 1012.3
20260505051928 66 62 0.0 4.0 0.00 0.00 0.00 99 1012.4
20260505051029 66 75 2.0 2.0 0.00 0.00 0.00 99 1012.3
20260505050128 66 52 0.0 4.0 0.00 0.00 0.00 99 1012.5
20260505041629 66 69 2.0 4.0 0.00 0.00 0.00 99 1012.7
20260505040728 66 79 1.0 2.0 0.00 0.00 0.00 98 1012.6
20260505035828 66 55 1.0 2.0 0.00 0.00 0.00 98 1012.9
20260505034927 67 65 2.0 4.0 0.00 0.00 0.00 98 1012.9
20260505034028 67 82 0.0 2.0 0.00 0.00 0.00 98 1012.7
20260505033127 67 41 0.0 4.0 0.00 0.00 0.00 98 1012.9
20260505032229 67 54 2.0 4.0 0.00 0.00 0.00 97 1012.8
20260505030428 67 50 1.0 4.0 0.00 0.00 0.00 97 1012.3
20260505025528 67 35 1.0 6.0 0.00 0.00 0.00 97 1012.3
20260505024628 67 42 3.0 6.0 0.00 0.00 0.00 97 1012.3
20260505023729 67 35 1.0 7.0 0.00 0.00 0.00 96 1012.2
20260505022828 67 25 2.0 6.0 0.00 0.00 0.00 96 1012.4
20260505021929 67 33 3.0 7.0 0.00 0.00 0.00 96 1012.2
20260505021029 67 35 3.0 7.0 0.00 0.00 0.00 95 1012.2
20260505020128 67 44 2.0 7.0 0.00 0.00 0.00 95 1012.2
20260505015228 67 26 4.0 11.0 0.00 0.00 0.00 95 1012.1
20260505014328 67 26 4.0 9.0 0.00 0.00 0.00 94 1012.2
20260505012529 67 41 3.0 9.0 0.00 0.00 0.00 94 1012.2
20260505011627 67 42 3.0 8.0 0.00 0.00 0.00 95 1012.2
20260505005828 66 36 3.0 7.0 0.00 0.00 0.00 96 1012.2
20260505004028 66 35 5.0 8.0 0.00 0.00 0.00 96 1012.2
20260505003129 66 45 5.0 7.0 0.00 0.00 0.00 96 1012.2
20260505000428 65 66 1.0 4.0 0.00 0.00 0.00 97 1011.9
20260504234628 65 59 0.0 4.0 0.00 0.00 0.00 96 1011.6
20260504233727 65 57 0.0 2.0 0.00 0.00 0.00 96 1011.4
20260504232828 65 37 1.0 2.0 0.00 0.00 0.00 96 1011.4
20260504231927 65 54 0.0 4.0 0.00 0.00 0.00 95 1011.1
20260504231028 65 70 0.0 2.0 0.00 0.00 0.00 95 1011.0
20260504230128 66 73 1.0 4.0 0.00 0.00 0.00 94 1011.0
20260504225228 66 85 2.0 4.0 0.00 0.00 0.00 93 1010.9
20260504224329 66 74 1.0 4.0 0.00 0.00 0.00 92 1010.7
20260504222528 66 76 0.0 2.0 0.00 0.00 0.00 90 1010.4
20260504221628 66 57 1.0 2.0 0.00 0.00 0.00 88 1010.4
20260504220727 66 92 0.0 2.0 0.00 0.00 0.00 86 1010.3
20260504214027 68 92 1.0 4.0 0.00 0.00 0.00 81 1010.3
20260504213129 69 87 0.0 4.0 0.00 0.00 0.00 79 1010.2
20260504212228 70 84 2.0 6.0 0.00 0.00 0.00 76 1010.0
20260504211328 71 80 0.0 4.0 0.00 0.00 0.00 74 1010.1
20260504205527 72 94 1.0 4.0 0.00 0.00 0.00 70 1010.3
20260504204628 72 90 1.0 4.0 0.00 0.00 0.00 69 1010.2